Tracking 27401 objects as of 3-Jun-2023
HD Live streaming from Space Station
objects crossing your sky now

COSMOS 962

Track COSMOS 962 now!
10-day predictions
COSMOS 962 is classified as:


NORAD ID: 10459
Int'l Code: 1977-107A
Perigee: 969.4 km
Apogee: 1,010.0 km
Inclination: 83.0 °
Period: 104.7 minutes
Semi major axis: 7360 km
RCS: 1.6429 m2 (large)
Launch date: October 28, 1977
Source: Commonwealth of Independent States (former USSR) (CIS)
Launch site: PLESETSK MISSILE AND SPACE COMPLEX (PKMTR)
Your satellite tracking list
Your tracking list is empty




NASA's NSSDC Master Catalog

Two Line Element Set (TLE):
1 10459U 77107A   23154.37656663  .00000051  00000-0  37685-4 0  9997
2 10459  82.9516 240.5423 0027637 330.4272  99.4043 13.74752391287185
Source of the keplerian elements: AFSPC